Theta_e
304 305 304 305 305 306 306 306 306 305 306 306 306 306 306 304 305 305 304 305 305 307 306 307 306 306 307 308 308 309 311 312 310 313 312 311 310 310 310 309 308 307 306
305 305 305 306 306 306 306 305 306 305 305 305 306 306 306 305 304 305 304 304 304 304 304 304 305 305 306 306 307 308 310 312 313 311 311 311 310 309 308 308 306 306 306
305 305 305 306 306 306 305 305 306 306 305 305 306 306 307 306 305 305 304 304 304 303 304 304 303 303 303 305 306 306 308 312 313 312 311 310 308 308 307 307 306 306 305
305 305 305 306 305 305 306 306 306 306 306 306 306 306 306 305 304 305 305 305 304 303 304 304 303 302 302 303 305 306 308 310 312 312 310 309 308 307 308 307 306 305 305
305 305 305 305 305 305 306 306 306 306 307 307 306 306 305 304 304 304 304 305 305 305 304 304 303 302 302 302 304 305 307 310 311 311 310 309 308 307 307 307 306 305 305
305 305 305 305 304 305 305 306 306 306 306 306 306 305 304 304 303 304 304 305 305 305 304 304 303 302 302 302 303 305 307 310 310 310 310 308 308 308 307 307 306 306 304
305 304 304 304 304 304 304 305 304 305 305 306 305 304 304 304 303 303 304 305 305 305 304 303 302 302 302 302 303 307 307 308 310 311 310 309 309 308 308 307 307 306 305
305 305 304 303 304 304 304 304 303 303 304 304 305 303 303 304 303 303 303 304 304 305 304 302 302 302 303 304 308 308 309 309 311 312 311 309 310 309 308 308 306 307 306
304 304 304 304 305 304 304 304 303 303 304 304 303 303 302 302 303 303 303 303 304 303 302 302 302 303 305 307 308 309 308 310 311 311 310 310 310 309 309 308 307 307 306
303 304 304 305 305 305 304 303 302 301 301 302 301 301 301 300 302 303 303 302 302 301 301 302 303 305 306 307 308 308 309 310 310 310 310 310 309 308 308 308 308 307 307
303 303 304 305 304 304 303 302 301 301 301 301 301 301 301 299 301 302 301 301 301 301 302 302 304 306 306 307 308 309 309 309 309 310 310 310 309 309 309 308 308 308 307
303 303 304 304 304 304 302 301 301 300 301 301 301 301 300 299 301 301 300 302 302 302 303 303 304 305 306 307 307 308 309 310 310 310 309 309 309 309 309 308 308 307 307
303 303 304 304 303 302 301 300 300 300 300 300 300 299 300 300 300 300 301 301 302 303 303 304 305 306 307 307 308 309 308 309 308 308 308 308 308 308 308 306 303 302 300
303 303 302 301 301 300 300 300 299 300 300 299 299 299 300 300 300 300 301 302 303 304 304 305 306 307 307 308 308 308 309 308 308 308 309 308 306 305 304 302 303 302 299
303 301 301 301 301 300 300 299 300 300 299 299 299 299 300 300 301 301 302 303 304 305 306 306 307 307 307 307 307 307 307 307 308 307 307 306 306 305 304 303 301 298 298
302 301 301 301 300 300 300 300 300 300 300 300 300 300 300 301 301 302 303 304 305 306 307 306 307 307 307 307 307 307 307 307 307 307 307 306 306 303 301 301 299 299 300
300 300 300 300 301 300 300 301 301 302 302 302 302 302 302 302 303 304 305 305 305 306 306 306 307 307 307 307 307 308 308 306 305 304 306 306 304 303 302 302 302 302 302
301 301 301 301 302 302 302 302 303 303 303 302 302 302 303 304 304 304 305 306 307 307 307 307 307 307 306 306 306 306 305 302 299 299 299 300 301 302 302 302 302 302 302
303 303 303 304 303 303 303 304 304 304 304 303 302 303 303 304 305 306 307 308 308 308 308 308 308 307 307 307 306 304 300 300 301 303 304 303 303 303 303 304 304 305 305
305 304 305 305 305 304 305 305 305 305 305 305 305 305 306 307 307 308 307 308 308 308 309 309 308 308 308 305 301 301 304 306 306 306 307 307 307 308 308 308 308 307 307
305 305 305 305 305 306 306 307 307 307 307 306 306 306 308 308 308 309 308 309 309 309 310 309 307 306 304 304 306 307 307 307 307 307 308 308 308 308 308 307 307 307 308
304 305 306 306 306 307 307 307 308 307 307 307 307 308 309 310 310 310 310 309 308 306 304 304 304 305 306 306 306 307 308 308 308 308 308 308 308 308 308 307 307 307 308
306 306 305 305 306 308 308 308 308 308 308 308 308 309 310 310 310 310 310 309 307 307 306 306 306 307 307 308 308 308 308 308 308 308 308 308 307 307 307 307 308 308 307
306 305 305 306 307 308 308 308 308 308 308 308 308 309 308 307 307 307 307 307 308 308 308 308 308 308 308 308 308 308 308 308 308 308 307 307 306 305 304 305 305 307 306
306 306 307 306 307 307 307 307 307 306 306 306 306 306 307 307 308 308 308 308 308 308 308 308 308 308 308 307 307 307 307 306 306 305 305 304 303 300 300 300 302 303 302
305 307 307 307 305 305 306 306 307 306 307 307 306 306 307 307 307 307 307 307 306 304 302 301 300 302 304 306 305 304 302 301 300 301 301 300 299 298 298 298 298 297 297
Wind_Speed
12 10 9 9 11 12 13 13 14 13 14 14 12 12 12 13 12 12 17 20 14 13 15 14 14 14 11 13 13 13 12 9 12 10 12 5 5 8 8 10 12 15 17
7 8 10 10 12 12 12 11 12 13 13 12 12 12 11 13 14 11 13 16 17 18 17 16 18 18 17 14 15 13 13 11 9 11 13 6 8 5 5 11 14 14 14
9 11 10 10 11 13 14 12 13 12 12 12 12 11 11 13 14 10 13 13 14 14 16 17 19 19 17 15 14 14 11 9 5 8 13 9 0 6 10 10 12 12 14
10 9 11 11 14 16 13 11 12 12 12 11 11 10 11 13 13 10 10 11 12 13 15 17 20 20 18 15 14 14 9 7 4 6 12 7 11 11 8 9 13 14 15
9 9 11 12 14 15 12 13 14 13 12 10 11 10 11 13 14 13 12 13 14 13 14 19 23 23 17 13 12 13 7 5 5 7 11 14 14 10 6 6 12 15 16
7 10 13 14 16 16 14 15 15 14 11 9 12 12 15 14 15 15 15 12 10 14 13 20 25 24 15 9 7 10 5 3 6 6 10 13 13 10 4 7 8 7 11
7 11 12 14 17 18 16 15 15 15 13 11 12 15 16 14 19 18 15 10 9 12 14 23 25 23 13 6 6 7 3 4 7 5 7 14 12 6 6 7 7 11 14
11 11 12 14 16 17 18 17 18 17 15 14 13 13 17 16 17 17 15 13 11 12 16 21 22 18 12 9 7 5 4 8 6 7 5 9 10 4 7 5 6 9 12
16 16 15 14 15 16 18 19 20 16 16 16 16 17 18 18 16 16 14 13 10 14 17 17 16 14 12 8 7 7 10 11 13 11 10 12 11 9 5 3 6 6 12
20 19 15 13 14 15 18 19 19 19 17 16 16 16 17 18 12 8 8 11 11 12 13 10 11 12 12 10 8 12 14 14 12 15 16 14 12 9 7 7 8 5 7
19 17 12 10 12 15 17 19 19 17 13 14 12 13 14 15 9 6 8 10 9 11 10 10 15 14 14 13 10 12 16 17 17 16 15 12 8 6 3 3 6 5 3
16 16 13 13 12 12 16 18 18 13 12 11 14 11 13 11 9 8 8 9 11 10 12 14 13 14 14 16 17 17 19 18 14 13 12 12 10 7 6 6 9 10 14
15 13 13 11 13 17 16 15 17 15 15 15 13 8 11 12 11 10 9 10 11 13 14 14 14 15 17 17 18 18 14 13 12 13 16 15 12 10 9 15 20 23 25
11 13 11 13 15 15 16 16 14 16 21 20 13 11 9 11 10 10 11 12 13 15 15 17 17 17 16 15 15 12 13 11 13 16 18 18 18 19 21 22 23 23 23
11 12 13 16 13 14 15 14 13 15 18 18 19 16 12 13 14 14 15 14 16 16 17 18 19 21 20 18 17 16 16 16 16 17 20 19 21 22 22 20 22 19 25
12 14 12 12 13 12 12 13 16 18 19 18 20 18 19 18 17 17 17 18 18 19 21 22 21 19 19 19 20 20 20 21 21 22 22 22 24 24 22 20 19 19 19
17 11 11 15 15 15 17 18 19 20 22 21 21 21 21 21 22 21 21 20 18 17 20 21 20 19 20 20 21 24 26 27 27 28 29 25 21 20 18 18 17 15 15
14 13 16 16 17 18 21 22 20 20 22 23 20 21 21 21 21 19 18 19 23 23 22 22 22 23 23 24 25 28 28 26 25 26 25 25 23 21 20 19 19 19 19
16 16 17 18 19 19 20 19 21 20 21 22 23 23 22 21 21 22 22 24 24 24 24 24 24 24 24 25 27 26 27 29 29 28 27 25 23 22 21 21 20 18 16
18 19 19 18 19 19 19 21 23 24 25 25 26 26 24 24 26 28 29 29 29 29 29 28 27 26 27 27 26 28 28 27 25 23 21 18 16 14 13 12 11 11 11
18 15 16 17 19 20 22 23 25 28 28 26 25 25 28 29 29 29 31 31 30 29 27 27 28 28 27 28 27 25 23 22 20 18 17 16 14 10 9 11 9 8 4
27 27 25 25 24 22 22 24 26 27 26 26 28 28 28 31 32 31 31 30 30 29 29 28 27 27 25 23 21 20 19 19 19 19 17 17 19 16 12 8 9 10 8
21 26 27 26 21 22 24 24 25 26 25 26 26 27 27 28 27 27 27 28 28 29 28 27 26 23 22 19 17 17 16 16 16 16 14 14 15 14 13 11 8 7 6
18 18 19 20 22 26 25 25 24 25 25 26 28 28 28 29 29 30 29 27 26 26 25 24 22 21 21 21 21 20 18 18 17 16 14 13 13 13 12 11 10 9 8
17 20 21 20 23 24 24 24 24 25 26 27 28 28 28 27 28 27 26 24 23 21 20 18 17 16 16 16 16 17 17 16 16 15 13 14 14 14 14 12 11 10 9
16 17 20 19 20 19 20 21 21 22 23 23 24 23 23 22 21 21 20 19 19 19 19 20 20 19 16 16 16 15 15 16 17 16 14 14 15 17 16 15 14 13 13
Wind_Direction
337 341 355 354 345 339 333 331 331 333 326 327 329 333 339 348 349 355 358 7 10 359 1 4 8 8 359 351 344 345 344 354 340 346 149 82 149 112 94 91 97 93 88
2 351 343 343 343 344 340 339 337 336 331 324 327 333 334 343 345 343 357 6 11 19 17 6 12 9 8 355 352 345 348 355 4 143 133 116 146 104 89 85 83 80 76
350 348 352 350 349 345 340 336 337 337 338 335 330 334 331 333 340 348 349 355 359 4 0 356 357 354 358 358 348 347 353 358 26 193 150 124 141 120 94 74 71 70 71
352 2 358 352 350 349 352 348 341 337 338 338 344 335 335 337 337 334 329 333 341 347 346 354 353 349 347 346 352 357 349 12 64 203 165 161 151 119 67 77 75 70 69
353 354 357 355 348 351 353 353 351 347 346 347 343 342 339 340 342 338 322 328 328 335 336 347 351 347 341 336 344 353 7 49 133 183 165 146 143 118 69 73 78 76 72
350 0 360 359 357 356 351 351 351 350 347 343 345 344 346 347 351 344 331 328 324 322 326 341 348 346 346 343 339 346 16 111 133 159 175 158 153 117 80 81 43 62 69
353 351 350 347 357 3 359 351 346 348 344 330 337 344 345 350 350 346 348 338 318 326 336 343 345 346 359 0 346 355 28 139 127 147 173 178 151 85 120 83 55 76 80
337 333 342 348 346 353 346 342 345 340 335 330 326 325 327 326 332 333 342 345 331 319 342 342 350 360 15 18 10 22 62 110 111 130 160 175 135 114 114 81 78 63 77
329 333 337 330 336 335 340 343 345 341 335 336 330 324 320 315 313 322 328 341 355 342 338 347 360 8 16 33 40 88 97 103 99 114 116 127 135 117 103 59 77 53 77
326 319 322 324 324 332 344 346 345 340 336 329 325 328 330 336 310 311 329 352 350 345 353 11 10 25 39 44 86 107 116 109 110 120 121 124 121 117 106 100 45 65 54
352 359 333 315 327 341 347 345 344 346 351 344 343 339 347 4 13 17 20 6 9 11 30 31 32 50 49 57 85 104 113 112 111 110 109 110 114 119 104 45 354 356 17
349 349 347 332 331 344 343 343 348 349 354 348 356 1 9 18 34 37 39 33 23 46 42 45 52 57 59 72 84 95 107 98 89 95 99 98 97 98 78 57 74 82 100
343 347 346 354 349 349 347 348 358 4 4 358 5 19 37 41 49 55 58 36 61 53 57 59 67 71 80 82 85 98 88 101 73 85 88 88 84 78 91 97 95 101 97
348 355 358 347 344 346 353 360 9 19 42 42 44 48 58 56 63 63 52 68 65 63 71 75 74 81 82 84 95 91 82 76 78 84 80 83 87 94 96 102 104 99 97
350 355 350 347 355 3 6 13 36 43 32 32 53 57 63 64 65 67 77 74 66 75 85 86 81 78 75 71 79 82 82 83 83 84 87 90 91 96 97 98 100 99 100
341 342 353 5 3 18 43 45 65 65 47 44 56 63 71 79 86 88 78 73 76 82 84 78 74 71 73 73 76 80 84 85 85 89 93 94 101 100 97 97 96 99 96
33 33 40 52 47 51 60 68 68 61 70 57 60 72 82 85 81 79 76 77 79 81 79 75 75 76 78 81 84 88 90 89 91 89 88 88 89 91 96 93 92 92 88
34 55 52 61 59 67 75 70 68 70 69 66 65 76 79 80 82 80 79 84 82 74 72 72 76 82 83 86 89 91 92 89 87 89 88 85 83 83 84 83 85 85 83
42 51 63 64 69 74 75 69 66 76 79 77 80 85 85 83 85 84 79 76 74 74 77 80 84 87 90 89 93 92 92 92 88 83 78 75 73 73 74 76 78 78 79
63 63 67 69 71 75 79 70 74 80 83 83 83 83 84 83 79 79 78 76 76 76 78 77 81 86 91 94 93 95 91 84 77 72 69 68 68 69 70 74 79 89 87
66 64 59 58 67 76 81 82 83 87 87 85 79 76 80 80 79 79 75 77 75 74 74 78 81 86 90 92 91 86 78 72 68 64 58 56 56 61 70 61 53 51 101
66 69 73 71 75 81 86 91 91 85 84 80 80 79 79 82 81 78 75 74 73 75 76 79 82 84 84 82 77 70 63 61 59 55 55 52 48 49 52 52 54 49 50
72 65 59 56 64 81 90 93 90 84 82 80 80 80 81 79 76 72 72 76 78 78 78 78 78 77 73 68 62 59 58 54 48 44 44 43 42 37 30 33 33 25 28
70 48 52 62 76 89 87 89 87 86 83 81 80 82 83 81 80 79 80 77 76 74 74 73 71 69 67 62 60 58 56 52 47 42 34 35 33 26 26 34 39 41 38
63 65 68 73 83 87 85 84 86 86 85 84 84 83 82 78 76 75 74 74 73 69 66 61 58 56 55 58 56 50 46 39 36 39 40 33 33 39 46 53 56 60 63
73 70 73 73 74 80 84 85 88 88 88 87 85 83 80 77 73 69 64 60 59 60 62 62 61 61 60 54 45 38 37 40 43 42 38 41 50 56 59 62 62 63 63